This demonstration page uses our WeatherBlox Daily Observations layout. Learn more.

Left ArrowRight Arrow

39.08367, -84.50855

Hourly Observations for December 6, 2016

Temp ( °F °C ) Dew Point ( °F °C ) Humidity (%) Winds ( mph kmh ) Pressure ( in mb ) Visibility ( mi km ) Precip ( " mm )
12:53 am 00:53 Clear 40 4.4 34 1.1 79 79 ENE 8 13 29.90 1013 10 16 0.00 0.00
1:53 am 01:53 Clear 40 4.4 34 1.1 79 79 NE 6 9 29.86 1011 10 16 0.00 0.00
2:53 am 02:53 Partly Cloudy 40 4.4 34 1.1 79 79 ENE 7 11 29.85 1011 10 16 0.00 0.00
3:53 am 03:53 Cloudy with Light Rain 40 4.4 36 2.2 86 86 NE 6 9 29.82 1010 10 16 0.00 0.03
4:53 am 04:53 Cloudy with Rain 40 4.4 37 2.8 89 89 NNE 5 7 29.81 1009 7 11 0.02 0.51
5:43 am 05:43 Cloudy with Light Rain 40 4.4 38 3.3 93 93 NE 5 7 29.80 1009 10 16 0.04 1.02
5:53 am 05:53 Cloudy with Light Rain 40 4.4 38 3.3 93 93 NNE 3 6 29.78 1009 6 10 0.04 1.02
6:42 am 06:42 Cloudy with Rain 39 4 37 3 93 93 NE 6 9 29.77 1008 4 6 0.00 0.00
6:53 am 06:53 Cloudy with Light Rain 39 3.9 39 3.9 100 100 NE 5 7 29.75 1007 5 8 0.08 2.03
7:19 am 07:19 Cloudy with Light Rain 39 3.9 39 3.9 100 100 ENE 6 9 29.74 1007 4 6 0.00 0.03
7:53 am 07:53 Cloudy with Light Rain 40 4.4 39 3.9 97 97 NE 6 9 29.69 1005 4 6 0.01 0.25
8:12 am 08:12 Cloudy with Light Rain 39 4 39 4 100 100 N 7 11 29.71 1006 4 6 0.00 0.00
8:34 am 08:34 Cloudy with Light Rain 39 4 39 4 100 100 N 5 7 29.71 1006 2 3 0.00 0.00
8:53 am 08:53 Cloudy with Rain 41 5 41 5 100 100 NNE 5 7 29.69 1005 1 2 0.05 1.27
9:53 am 09:53 Cloudy with Rain 42 5.6 42 5.6 100 100 N 3 6 29.68 1005 3 4 0.12 3.05
10:09 am 10:09 Cloudy with Rain 42 5.6 42 5.6 100 100 Calm 29.71 1006 2 3 0.03 0.76
10:19 am 10:19 Cloudy with Rain 42 5.6 42 5.6 100 100 Calm 29.71 1006 2 3 0.04 1.02
10:53 am 10:53 Cloudy with Rain 43 6.1 42 5.6 97 97 Calm 29.68 1005 3 4 0.08 2.03
11:53 am 11:53 Cloudy with Light Rain 43 6.1 42 5.6 97 97 NW 7 11 29.68 1005 3 5 0.03 0.76
12:53 pm 12:53 Cloudy with Rain 43 6.1 41 5 93 93 NNW 5 7 29.68 1005 4 6 0.10 2.54
1:53 pm 13:53 Cloudy with Light Rain 43 6.1 41 5 93 93 Calm 29.67 1005 8 13 0.03 0.76
2:53 pm 14:53 Cloudy 44 6.7 42 5.6 93 93 VRB 5 7 29.72 1006 10 16 0.00 0.03
3:53 pm 15:53 Cloudy 45 7.2 42 5.6 90 90 W 5 7 29.75 1007 10 16 0.00 0.00
4:53 pm 16:53 Cloudy 45 7.2 41 5 86 86 W 8 13 29.81 1009 10 16 0.00 0.00
5:53 pm 17:53 Cloudy 44 6.7 40 4.4 85 85 W 13 20 29.86 1011 9 14 0.00 0.00
6:36 pm 18:36 Cloudy 45 7 39 4 81 81 WNW 5 7 29.91 1013 9 14 0.00 0.00
6:53 pm 18:53 Cloudy 44 6.7 39 3.9 83 83 WNW 5 7 29.88 1012 9 14 0.00 0.00
7:53 pm 19:53 Cloudy 44 6.7 36 2.2 73 73 WNW 9 15 29.93 1013 10 16 0.00 0.00
8:53 pm 20:53 Cloudy 42 5.6 35 1.7 76 76 W 13 20 29.96 1015 10 16 0.00 0.00
9:53 pm 21:53 Cloudy 39 3.9 33 0.6 79 79 NW 7 11 30.00 1016 10 16 0.00 0.00
10:53 pm 22:53 Cloudy 38 3.3 31 -0.6 76 76 WNW 8 13 30.03 1017 10 16 0.00 0.00
11:33 pm 23:33 Partly Cloudy 37 2.8 31 -0.6 79 79 WNW 7 11 30.03 1017 10 16 0.00 0.00
11:53 pm 23:53 Clear 37 2.8 31 -0.6 79 79 WNW 7 11 30.06 1018 10 16 0.00 0.00

Powered by AerisWeather